Find Starlink 37457

NORAD ID: 100294 Int'l Des: 2026-183 Owner: SPXS Country: US Constellation: starlink operational

Current View

Loading 3D Globe...

About Starlink 37457

Starlink 37457 (NORAD 100294) is a starlink constellation satellite launched Aug 11, 2026 by SPXS of US. with a mass of 575.00 kg.

Upcoming Passes

Passes for default location (London). Set your location on the main map for personalized predictions.

Altitude History

Loading altitude history...

Two-Line Element Set

1 A0294U 26183Y 26254.56467206 -.00385101 00000-0 -27089-2 0 9998
2 A0294 53.1560 301.1788 0001731 72.4067 287.7142 15.74506694 4904
Epoch: Sep 11, 2026 • Age: 28 hours

Current Status

Altitude 352.0 km
Apogee / Perigee N/A
Velocity 7.70 km/s
Sub-Earth Point 43.29°N, 176.68°E
Launch Date Aug 11, 2026
Age 32 days
Type internet

Technical Details

Classification Payload
Mass 575.00 kg
Dry Mass 530.00 kg
Total Mass 575.00 kg
Length 0.30 m
Diameter 4.10 m
Span 29.00 m
Shape Box + pan
Manufacturer SPXS
Bus Type Starlink V2MO
Phase Status In Orbit
Owner/State SPXS/US

Most Searched